Change the Weather History Date:

Sunday, January 19, 2014

  Actual Average Record
Temperature  
Mean Temperature 27 °F 32 °F  
Max Temperature 29 °F 38 °F 57 °F (1896)
Min Temperature 25 °F 25 °F -16 °F (1883)
Degree Days  
Heating Degree Days 38 33  
Month to date heating degree days 619 655  
Since 1 July heating degree days 3177 2970  
Cooling Degree Days 0 0  
Month to date cooling degree days 0 0  
Year to date cooling degree days 0 0  
Moisture  
Dew Point 25 °F    
Average Humidity 93    
Maximum Humidity 100    
Minimum Humidity 85    
Precipitation  
Precipitation T in 0.04 in 0.91 in (1969)
Month to date precipitation 0.31 0.82  
Year to date precipitation 0.31 0.82  
Snow  
Snow T in 0.10 in 6.90 in (1930)
Month to date snowfall 3.0 3.4  
Since 1 July snowfall 9.9 13.1  
Snow Depth 0.00 in    
Sea Level Pressure  
Sea Level Pressure 30.36 in    
Wind  
Wind Speed 3 mph (NW)    
Max Wind Speed 12 mph    
Max Gust Speed 15 mph    
Visibility 2 miles    
Events Fog , Snow    
T = Trace of Precipitation, MM = Missing Value Source: NWS Daily Summary

Daily Weather History Graph

Daily Weather History Graph

Search for Another Location

Airport or City:

Trip Planner

Search our weather history database for the weather conditions in past years. The results will help you decide how hot, cold, wet, or windy it might be!

Date:

Astronomy

Jan. 19, 2014 Rise Set
Actual Time 8:12 AM MST 5:39 PM MST
Civil Twilight 7:41 AM MST 6:10 PM MST
Nautical Twilight 7:06 AM MST 6:45 PM MST
Astronomical Twilight 6:31 AM MST 7:19 PM MST
Moon 9:29 PM MST 9:37 AM MST
Length of Visible Light 10h 29m
Length of Day
9h 26m
Waning Gibbous, 89% of the Moon is Illuminated
Jan 19
Waning Gibbous
Jan 23
Last Quarter
Jan 30
New
Feb 6
First Quarter
Feb 14
Full

Hourly Weather History & Observations

Time (MST) Temp. Windchill Dew Point Humidity Pressure Visibility Wind Dir Wind Speed Gust Speed Precip Events Conditions
12:53 AM 26.1 °F - 26.1 °F 100% 30.39 in 0.2 mi Calm Calm - N/A Fog Light Freezing Fog
1:05 AM 26.6 °F - 26.6 °F 100% 30.32 in 0.5 mi Calm Calm - N/A Fog Light Freezing Fog
1:24 AM 26.6 °F 22.6 °F 26.6 °F 100% 30.31 in 0.2 mi WNW 3.5 mph - N/A Fog Light Freezing Fog
1:53 AM 26.1 °F - 26.1 °F 100% 30.38 in 0.2 mi Calm Calm - N/A Fog Light Freezing Fog
2:53 AM 27.0 °F - 26.1 °F 96% 30.38 in 0.2 mi Calm Calm - N/A Fog Light Freezing Fog
3:53 AM 28.0 °F - 26.1 °F 92% 30.38 in 0.2 mi Calm Calm - N/A   Overcast
4:53 AM 28.0 °F 21.7 °F 26.1 °F 92% 30.39 in 0.2 mi North 5.8 mph - N/A   Overcast
5:53 AM 28.0 °F 24.2 °F 26.1 °F 92% 30.39 in 0.2 mi North 3.5 mph - N/A   Mist
6:53 AM 28.0 °F - 25.0 °F 88% 30.39 in 0.2 mi Calm Calm - N/A   Overcast
7:35 AM 28.4 °F - 24.8 °F 86% 30.32 in 0.8 mi Calm Calm - 0.00 in Snow Light Snow
7:42 AM 28.4 °F - 24.8 °F 86% 30.32 in 1.5 mi Calm Calm - 0.00 in Snow Light Snow
7:53 AM 27.0 °F - 24.1 °F 89% 30.39 in 0.8 mi Calm Calm - 0.00 in   Overcast
8:53 AM 27.0 °F - 24.1 °F 89% 30.39 in 0.8 mi Calm Calm - N/A   Overcast
9:10 AM 26.6 °F - 24.8 °F 93% 30.32 in 2.0 mi Calm Calm - N/A   Overcast
9:53 AM 26.1 °F - 24.1 °F 92% 30.41 in 2.0 mi Calm Calm - N/A   Overcast
10:00 AM 26.6 °F - 24.8 °F 93% 30.33 in 5.0 mi Calm Calm - N/A   Overcast
10:12 AM 26.6 °F - 24.8 °F 93% 30.33 in 2.0 mi Calm Calm - N/A   Overcast
10:53 AM 25.0 °F 20.7 °F 24.1 °F 96% 30.42 in 2.0 mi SSE 3.5 mph - N/A   Overcast
11:00 AM 26.6 °F - 24.8 °F 93% 30.33 in 4.0 mi Calm Calm - N/A   Overcast
11:07 AM 26.6 °F 21.2 °F 24.8 °F 93% 30.33 in 2.0 mi SSW 4.6 mph - N/A   Overcast
11:53 AM 26.1 °F - 24.1 °F 92% 30.40 in 2.0 mi Calm Calm - N/A   Overcast
12:53 PM 25.0 °F - 24.1 °F 96% 30.38 in 3.0 mi Calm Calm - N/A   Overcast
1:26 PM 26.6 °F - 24.8 °F 93% 30.28 in 3.0 mi Calm Calm - N/A   Overcast
1:53 PM 27.0 °F 21.6 °F 26.1 °F 96% 30.34 in 3.0 mi SW 4.6 mph - N/A   Overcast
2:53 PM 28.9 °F 22.8 °F 26.1 °F 89% 30.32 in 3.0 mi WNW 5.8 mph - N/A   Overcast
3:53 PM 28.0 °F 19.3 °F 26.1 °F 92% 30.33 in 3.0 mi NNW 9.2 mph - N/A   Overcast
4:53 PM 28.0 °F 20.8 °F 25.0 °F 88% 30.33 in 2.0 mi WNW 6.9 mph - N/A   Overcast
5:53 PM 27.0 °F 21.6 °F 26.1 °F 96% 30.33 in 2.0 mi North 4.6 mph - N/A   Overcast
6:50 PM 26.6 °F 19.1 °F 26.6 °F 100% 30.27 in 2.0 mi NNW 6.9 mph - N/A   Overcast
6:53 PM 27.0 °F 20.5 °F 26.1 °F 96% 30.34 in 2.0 mi NNW 5.8 mph - N/A   Overcast
7:53 PM 26.1 °F 18.4 °F 26.1 °F 100% 30.35 in 2.0 mi WNW 6.9 mph - N/A   Overcast
8:35 PM 26.6 °F 18.2 °F 24.8 °F 93% 30.28 in 1.0 mi NW 8.1 mph - N/A   Overcast
8:53 PM 26.1 °F 20.5 °F 25.0 °F 96% 30.36 in 1.0 mi NNW 4.6 mph - N/A   Overcast
9:53 PM 26.1 °F 16.8 °F 25.0 °F 96% 30.39 in 0.8 mi North 9.2 mph - 0.00 in Snow Light Snow
10:53 PM 25.0 °F 20.7 °F 25.0 °F 100% 30.39 in 0.2 mi NNW 3.5 mph - 0.00 in Fog Light Freezing Fog
11:35 PM 26.6 °F 22.6 °F 24.8 °F 93% 30.32 in 0.5 mi WSW 3.5 mph - N/A Fog Light Freezing Fog
11:53 PM 25.0 °F 19.3 °F 25.0 °F 100% 30.41 in 0.5 mi NW 4.6 mph - N/A Fog Light Freezing Fog